• MPC Preparation (Info)

  • MPEC 2020-K136 : 2020 KL3

    The following Minor Planet Electronic Circular may be linked-to from your own Web pages, but must not otherwise be redistributed electronically.

    A form allowing access to any MPEC is at the bottom of this page.


    Read MPEC 2020-K135 Read MPEC 2020-K137


    M.P.E.C. 2020-K136                                 Issued 2020 May 23, 04:59 UT
    
         The Minor Planet Electronic Circulars contain information on unusual
             minor planets and routine data on comets.  They are published
        on behalf of Division F of the International Astronomical Union by the
              Minor Planet Center, Smithsonian Astrophysical Observatory,
                              Cambridge, MA 02138, U.S.A.
    
                 Prepared using the Tamkin Foundation Computer Network
    
                                  MPC@CFA.HARVARD.EDU
                URL https://www.minorplanetcenter.net/    ISSN 1523-6714
    
                                    2020 KL3                                 
    
    
    Observations:
         K20K03L* C2020 05 21.45042116 43 34.115-02 43 28.00         20.42wUEK136F51
         K20K03L  C2020 05 21.47594116 43 31.785-02 37 27.40         20.45wUEK136F51
         K20K03L  C2020 05 21.48871616 43 30.613-02 34 27.35         20.59wUEK136F51
         K20K03L bC2020 05 22.00200416 43 03.20 -00 38 39.0          20.5 GVEK136L01
         K20K03L bC2020 05 22.00360916 43 03.08 -00 38 16.7          20.5 GVEK136L01
         K20K03L pC2020 05 22.00521416 43 02.98 -00 37 57.1          20.6 GVEK136L01
         K20K03L bC2020 05 22.00708216 43 02.88 -00 37 31.6          20.6 GVEK136L01
         K20K03L bC2020 05 22.00868116 43 02.78 -00 37 10.5          20.7 GVEK136L01
         K20K03L bC2020 05 22.00987916 43 02.63 -00 36 55.3          20.4 GVEK136L01
         K20K03L HC2020 05 22.01157 16 43 02.89 -00 36 33.8          20.5 GVEK136204
         K20K03L KC2020 05 22.02516 16 43 01.80 -00 33 35.8                VEK136204
         K20K03L KC2020 05 22.07273 16 42 58.71 -00 23 14.8          19.7 GUEK136I93
         K20K03L KC2020 05 22.08195 16 42 58.00 -00 21 14.2          20.4 GUEK136I93
         K20K03L  C2020 05 22.29867 16 42 49.22 +00 25 10.3          20.5 GVEK136I52
         K20K03L  C2020 05 22.29993 16 42 49.12 +00 25 26.1          19.9 GVEK136I52
         K20K03L  C2020 05 22.30234 16 42 48.92 +00 25 56.6          20.7 GVEK136I52
         K20K03L  C2020 05 22.30360 16 42 48.82 +00 26 12.4          20.6 GVEK136I52
         K20K03L  C2020 05 22.36480 16 42 43.84 +00 38 59.6          20.7 GVEK136G96
         K20K03L  C2020 05 22.36996 16 42 43.44 +00 40 03.4          19.9 GVEK136G96
         K20K03L  C2020 05 22.37001 16 42 44.01 +00 40 02.2          20.6 GVEK136654
         K20K03L  C2020 05 22.37650 16 42 42.90 +00 41 25.4          20.6 GVEK136G96
         K20K03L  C2020 05 22.38168 16 42 42.49 +00 42 30.1          20.4 GVEK136G96
         K20K03L  C2020 05 22.40107 16 42 41.53 +00 46 28.6          20.7 GVEK136654
         K20K03L  C2020 05 22.43607 16 42 38.79 +00 53 42.0          20.8 GVEK136654
         K20K03L ^C2020 05 22.59825816 42 28.895+01 27 02.66         20.77GVEK136568
         K20K03L ^C2020 05 22.59920616 42 28.829+01 27 14.07         20.81GVEK136568
         K20K03L ^C2020 05 22.60015616 42 28.762+01 27 25.57         20.77GVEK136568
         K20K03L ^C2020 05 22.60110916 42 28.694+01 27 37.08         20.80GVEK136568
         K20K03L KC2020 05 22.93039116 42 18.19 +02 31 55.3          19.1 GVEK136104
         K20K03L KC2020 05 22.94818816 42 16.93 +02 35 20.3                VEK136104
    
    Observer details:
    104 San Marcello Pistoiese.  Observers P. Bacci, M. Maestripieri.  Measurers
        P. Bacci, L. Tesi, G. Fagioli.  0.60-m reflector + CCD.
    204 Schiaparelli Observatory.  Observer L. Buzzi.  0.84-m f/3.5 reflector +
        CCD.
    568 Mauna Kea.  Observers R. Wainscoat, C. Crowder, S. Prunet.  Measurers R.
        Weryk, R. Wainscoat.  3.6-m Canada-France-Hawaii Telescope + CCD.
    654 Table Mountain Observatory, Wrightwood-PHMC.  Observers P. Choi, N. Saini,
        C. Zhai, R. Trahan, M. Shao.
    F51 Pan-STARRS 1, Haleakala.  Observers J. Bulger, T. Lowe, A. Schultz, M.
        Willman.  Measurers K. Chambers, S. Chastel, T. de Boer, L. Denneau, J.
        Fairlamb, H. Flewelling, M. Huber, C.-C. Lin, E. Magnier, Y. Ramanjooloo,
        R. Wainscoat, R. Weryk.  1.8-m Ritchey-Chretien + CCD.
    G96 Mt. Lemmon Survey.  Observer D. Rankin.  Measurers E. J. Christensen, G.
        A. Farneth, D. C. Fuls, A. R. Gibbs, A. D. Grauer, H. Groeller, R. A.
        Kowalski, S. M. Larson, G. J. Leonard, T. A. Pruyne, D. Rankin, R. L.
        Seaman, F. C. Shelly, K. W. Wierzchos.  1.5-m reflector + 10K CCD.
    I52 Steward Observatory, Mt. Lemmon Station.  Observer T. A. Pruyne.
        Measurers E. J. Christensen, G. A. Farneth, D. C. Fuls, A. R. Gibbs, A. D.
        Grauer, H. Groeller, R. A. Kowalski, S. M. Larson, G. J. Leonard, T. A.
        Pruyne, D. Rankin, R. L. Seaman, F. C. Shelly, K. W. Wierzchos.  1.0-m
        reflector + CCD.
    I93 St Pardon de Conques.  Observer F. Losse.  0.40-m f/3.7 reflector + CCD.
    L01 Visnjan Observatory, Tican.  Observer K. Korlevic.  1.0-m f/2.9 reflector
        + CCD.
    
    Orbital elements:
    2020 KL3                                                 Earth MOID = 0.0652 AU
    Epoch 2020 May 22.0 TT = JDT 2458991.5                  Bell                    
    M  22.96746              (2000.0)            P               Q                  
    n   0.47142873     Peri.  310.03124     -0.92032069     +0.08104454             
    a   1.6350286      Node   238.00132     -0.03082290     -0.99028438             
    e   0.4044004      Incl.   26.82313     -0.38994842     -0.11299836             
    P   2.09           H   24.44          G   0.15           U   8                  
    Residuals in seconds of arc
    200521 F51  0.0-  0.1+    200522 204  0.2-  0.1+    200522 G96  0.0-  0.0-
    200521 F51  0.1+  0.0-    200522 I93  0.1-  0.5-    200522 G96  0.0+  0.1+
    200521 F51  0.0-  0.1-    200522 I93  0.1-  0.4+    200522 654  0.1+  0.1-
    200522 L01  1.1-  0.3-    200522 I52  0.1+  0.1-    200522 654  0.2-  0.2-
    200522 L01  1.0-  1.0+    200522 I52  0.1+  0.2-    200522 568  0.0-  0.0+
    200522 L01  0.6-  0.5-    200522 I52  0.0+  0.0-    200522 568  0.0+  0.0-
    200522 L01  0.1+  0.5+    200522 I52  0.1+  0.1-    200522 568  0.0+  0.0+
    200522 L01  0.5+  0.6+    200522 G96  0.0-  0.1+    200522 568  0.0+  0.0+
    200522 L01  0.4-  0.1+    200522 G96  0.2+  0.5-    200522 104  0.3-  0.1-
    200522 204  0.2+  0.1+    200522 654  0.1+  0.1+    200522 104  0.1-  0.4-
    Ephemeris:
    2020 KL3                 a,e,i = 1.64, 0.40, 27                  q = 0.9738
    Date    TT    R. A. (2000) Decl.     Delta      r    Elong.  Phase     V
    2020 04 23    04 28 02.0 -64 49 20   0.2030  0.9978    82.0    86.4    24.0
    ...
    2020 05 08    18 25 11.8 -84 18 33   0.09142 1.0449   110.6    64.7    21.6
    ...
    2020 05 16    16 50 52.4 -33 09 20   0.07224 1.0782   157.4    21.1    19.9
    ...
    2020 05 22    16 43 03.7 -00 38 13   0.1009  1.1061   157.1    20.8    20.7
    2020 05 23    16 42 13.3 +02 46 00   0.1079  1.1109   154.5    23.1    20.9
    2020 05 24    16 41 27.5 +05 43 52   0.1153  1.1158   152.0    25.3    21.1
    ...
    2020 05 30    16 38 03.1 +17 11 24   0.1646  1.1463   141.0    33.8    22.2
    ...
    2020 06 07    16 35 35.8 +23 48 20   0.2371  1.1894   133.0    38.6    23.2
    ...
    2020 06 22    16 35 21.4 +27 01 04   0.3813  1.2751   125.3    40.6    24.5
    
    M. P. C. Staff               (C) Copyright 2020 MPC           M.P.E.C. 2020-K136
    


    Read MPEC 2020-K135 Read MPEC 2020-K137


    MPEC number:

    Enter an MPEC number in one of the following forms:

    • 1997-B01 (the full form)
    • J97B01 (the packed version of the full form)
    • B01 (the abbreviated form)